Terminal Aerodrome Forecast
Issued by NWS

Current Version | Previous Version | Text Only | Print | Product List | Glossary On
Versions: 1 2 3 4 5 6 7 8 9 10 11 12 13 14 15 16 17 18 19 20 21 22 23 24 25 26 27 28 29 30 31 32 33 34 35 36 37 38 39 40 41 42 43 44 45 46 47 48
000
FTUS41 KCTP 200336 AAA
TAFLNS
TAF AMD
KLNS 200336Z 2004/2024 12006KT P6SM FEW050
     FM200500 12004KT 4SM BR BKN020
     FM200700 12002KT 1SM BR SCT005
     FM201230 17008KT P6SM SCT050=

USA.gov is the U.S. government's official web portal to all federal, state and local government web resources and services.